Regional Weather Roundup
Issued by NWS

Home | Current Version | Previous Version | Text Only | Print | Product List | Glossary Off
Versions: 1 2 3 4 5 6 7 8 9 10 11 12 13 14 15 16 17 18 19 20 21 22 23 24 25 26 27 28 29 30 31 32 33 34 35 36 37 38 39 40 41 42 43 44 45 46 47 48 49 50

000
ASUS43 KFSD 010210
RWRSD

WEATHER ROUNDUP FOR SOUTH DAKOTA
NATIONAL WEATHER SERVICE SIOUX FALLS SD
900 PM CDT FRI JUL 31 2015

NOTE: "FAIR" INDICATES FEW OR NO CLOUDS BELOW 12,000 FEET WITH NO
SIGNIFICANT WEATHER AND/OR OBSTRUCTIONS TO VISIBILITY.


SDZ001>005-009-010-012>017-010300-
NORTHWEST AND NORTH CENTRAL SOUTH DAKOTA

CITY           SKY/WX    TMP DP  RH WIND       PRES   REMARKS
BUFFALO          N/A     80  46  30 SE12      30.01S
FAITH            N/A     79  43  27 E8        30.07F
MOBRIDGE       CLEAR     75  59  57 E6        30.01S
$$

SDZ012>016-024>037-041>051-057-063-072>074-010300-
SOUTHWEST AND SOUTH CENTRAL SOUTH DAKOTA

CITY           SKY/WX    TMP DP  RH WIND       PRES   REMARKS
RAPID CTY ARPT CLEAR     76  55  48 NE10      30.10S
PIERRE         CLEAR     83  54  36 NE3       30.03S
CUSTER         CLEAR     71  48  43 E7        30.26F
ELLSWORTH AFB  CLEAR     81  52  36 E7        30.10S
PHILIP         CLEAR     76  57  51 E8        30.05S
PINE RIDGE     CLEAR     80  53  39 E10       30.11R
SPEARFISH      FAIR      73  54  49 SE8       30.15S
WINNER         FAIR      79  60  52 E9        30.07R
$$

SDZ004>011-016>023-039-040-010300-
NORTHEAST SOUTH DAKOTA

CITY           SKY/WX    TMP DP  RH WIND       PRES   REMARKS
ABERDEEN       CLEAR     78  59  51 N5        30.00S
WATERTOWN      CLEAR     72  62  71 SW6       30.02F
BROOKINGS      CLEAR     73  61  64 S7        30.06S
SISSETON         N/A     72  64  76 S5        29.97F
$$

SDZ017-020-022-023-036>040-048>070-010300-
SOUTHEAST SOUTH DAKOTA

CITY           SKY/WX    TMP DP  RH WIND       PRES   REMARKS
SIOUX FALLS    PTCLDY    78  59  51 SW3       30.06R
HURON          CLEAR     78  57  48 S7        30.02S
CHAMBERLAIN    CLEAR     75  63  65 E5        30.05S
MITCHELL       CLEAR     76  62  62 S6        30.05S
YANKTON        CLEAR     75  68  78 NE6       30.04R
$$

ABBREVIATIONS USED IN REMARKS
   TC - TEMPERATURE IN CELSIUS
  WCI - WIND CHILL INDEX
   HX - HEAT INDEX
  VSB - VISIBILITY




USA.gov is the U.S. government's official web portal to all federal, state and local government web resources and services.